Retour au catalogue

SL-8 R/B

ActifPO
NORAD 10777·ROCKET BODY·🇷🇺 Russia

Lancé Mar 31, 1978 depuis Plesetsk Cosmodrome

Loading…

Prochains Passages (prochaines 24 heures)

TLE

FraisSource: Space-Track

Époque: Sep 14, 2026, 08:37 UTC

1 10777U 78034B   26257.35930280  .00000142  00000-0  12632-3 0  9990
2 10777  82.9393 238.9085 0027522  99.2309  63.7654 13.77760895435177

Suivez SL-8 R/B en temps réel avec AllMySat

Download on the App Store